Location: Forst
(46.9333°N, 15.4333°E)
Time: 06:58:35
(UTC+00:00)

Lacrosse 5 rocket - Pass Details

Date: 20 April 2021
Orbit: 460 x 634 km, 57.0° (Epoch: 12 May)

Event Time Altitude Azimuth Distance (km) Brightness Sun altitude
Rises 20:54:34 0° 306° (NW) 2,756 6.0 -25.2°
Reaches altitude 10° 20:57:01 10° 318° (NW) 1,890 5.1 -25.4°
Maximum altitude 21:00:45 28° 18° (NNE) 1,131 3.2 -25.7°
Enters shadow 21:02:01 24° 47° (NE) 1,254 3.2 -25.9°
